{"data":{"norad_id":69979,"epoch":"2026-09-20T00:00:02.998944Z","epoch_age_seconds":60964,"freshness":"FRESH","line1":"1 69979U 26159E   26263.00003471 -.00131188  00000+0 -24461-2 0  9999","line2":"2 69979  97.2854 104.8301 0001534 103.3901 158.1364 15.49242713  5960","mean_motion":15.49242713,"eccentricity":0.0001534,"inclination_deg":97.2854,"raan_deg":104.8301,"arg_perigee_deg":103.3901,"mean_anomaly_deg":158.1364,"bstar":-0.0024461,"rev_number":596,"period_min":92.94863793237,"perigee_km":417.89748678613,"apogee_km":419.98283005833,"semimajor_km":6797.0771584222,"source":"CELESTRAK","updated_at":"2026-09-20T09:00:44.328506Z"}}